Simultaneous Nadir Overpasses (SNOs) Predictions

Prediction of SNOs between METOP-B and TERRA Satellite Orbit:

Table of predicted SNOs for the next 14.0 days since TLE Epoch: 2/12/2022
Index Date (METOP-B) Time (METOP-B) Lat,Lon (METOP-B) SZA (METOP-B ) Date (TERRA) Time (TERRA) Lat,Lon (TERRA) SZA (TERRA ) Distance(km) Time Diff (sec)
1 02/13/2022 09:31:59 81.25, 80.40 96.49 02/13/2022 09:32:30 81.25, 80.25 96.49 2.50 31
2 02/13/2022 10:22:39 -81.26,-111.82 83.47 02/13/2022 10:21:56 -81.26,-111.84 83.49 0.26 43
3 02/16/2022 05:06:21 81.25, 146.72 95.53 02/16/2022 05:06:40 81.24, 146.61 95.52 2.19 19
4 02/16/2022 05:57:00 -81.26, -45.46 84.43 02/16/2022 05:56:05 -81.26, -45.46 84.46 0.19 55
5 02/19/2022 00:40:41 81.26,-146.60 94.58 02/19/2022 00:40:48 81.25,-146.77 94.56 2.93 7
6 02/19/2022 01:31:21 -81.27, 21.24 85.38 02/19/2022 01:30:14 -81.27, 21.18 85.41 1.06 67
7 02/21/2022 19:24:24 -81.24, 111.87 86.48 02/21/2022 19:25:32 -81.23, 111.73 86.48 2.57 68
8 02/21/2022 20:15:03 81.25, -80.35 93.56 02/21/2022 20:14:57 81.26, -80.26 93.57 1.71 6
9 02/24/2022 14:58:46 -81.24, 178.11 87.52 02/24/2022 14:59:41 -81.23, 178.16 87.50 1.03 55



Historial Predications of SNOs between METOP-B and TERRA
